Location: Bailleul
(50.3375°N, 2.8513°E)
Time: 13:34:03
(UTC+00:00)

Iridium 2 - Pass Details

Date: 16 June 2021
Orbit: 502 x 511 km, 85.5° (Epoch: 29 July)

Event Time Altitude Azimuth Distance (km) Brightness Sun altitude
Exits shadow 23:22:23 25° 217° (SW) 1,069 4.9 -16.0°
Maximum altitude 23:24:17 48° 279° (W) 677 4.3 -16.1°
Drops below altitude 10° 23:27:57 10° 355° (N) 1,731 7.7 -16.1°
Sets 23:30:08 0° 1° (N) 2,619 9.1 -16.2°
